Flag for Brazil Weather past 2 weeks in Rio de Janeiro, Rio de Janeiro, Brazil

Now
70 °F

Light rain. Mostly cloudy.


Feels Like: 70 °F
Forecast: 65 / 73 °F
Wind: 2 mph from Northwest

Location: Rio De Janeiro Airport

Current Time: Sep 22, 2014 at 1:30:19 AM

Latest Report: Sep 21, 2014 at 11:00 PM


Visibility: N/A

Pressure: 30.07 "Hg

Humidity: 88%

Dew point: 66 °F

Location of Rio de JaneiroLocation

Historic Weather in Rio de Janeiro — Graph

°F

Rio de Janeiro temperature yesterday

Maximum temperature yesterday: 73 °F (at 6:00 AM)
Minimum temperature yesterday: 68 °F (at 1:00 PM)
Average temperature yesterday: 71 °F

Past Weeks' High & Low Weather Summary

 TemperatureHumidityPressure
High91 °F (Sep 11, 2:00 PM)94% (Sep 12, 6:00 AM)30.18 "Hg (Sep 12, 6:00 AM)
Low66 °F (Sep 7, 6:00 AM)30% (Sep 15, 2:00 PM)29.80 "Hg (Sep 15, 3:00 PM)
Average75 °F74%30.01 "Hg
* Reported Sep 6 11:00 PM — Sep 21 11:00 PM, Rio de Janeiro, Weather by CustomWeather, © 2014

Note: Actual official high and low records may vary slightly from our data, if they occured in-between our weather recording intervals... More about our weather records

Advertising

Rio de Janeiro weather history for previous 24 hours

 ConditionsComfort  
Time TempWeatherWind HumidityBarometerVisibility
11:00 PM
Sep 21
70 °FLight rain. Mostly cloudy.2 mph88%30.07 "HgN/A
10:00 PM70 °FLight rain. Passing clouds.7 mph83%30.07 "HgN/A
9:00 PM70 °FPassing clouds.5 mph83%30.07 "HgN/A
8:00 PM70 °FPassing clouds.5 mph73%30.04 "HgN/A
7:00 PM70 °FPassing clouds.6 mph78%30.01 "HgN/A
6:00 PM70 °FLight rain. Overcast.9 mph83%30.01 "HgN/A
5:00 PM70 °FLight rain. Mostly cloudy.No wind88%29.98 "Hg4 mi
4:00 PM70 °FLight rain. Mostly cloudy.3 mph88%29.95 "Hg3 mi
3:00 PM70 °FMostly cloudy.8 mph88%29.92 "HgN/A
2:00 PM70 °FLight rain. Cloudy.7 mph88%29.92 "Hg4 mi
1:00 PM68 °FLight rain. Cloudy.13 mph94%29.92 "Hg2 mi
12:00 PM72 °FFog.20 mph88%29.92 "Hg2 mi
11:00 AM73 °FFog.3 mph94%29.92 "Hg3 mi
10:00 AM73 °FLight rain. Fog.8 mph94%29.89 "Hg3 mi
9:00 AM73 °FLight rain. Fog.3 mph94%29.89 "Hg3 mi
8:00 AM73 °FLight rain. Fog.3 mph94%29.89 "Hg3 mi
7:00 AM73 °FLight rain. Fog.5 mph94%29.86 "Hg3 mi
6:00 AM73 °FLight rain. Fog.3 mph89%29.83 "Hg3 mi
Weather by CustomWeather, © 2014

See weather overviewHow to use our weather pages